CW9803 Weather Reports


time (UTC)temp
C
wind
direction
speed
KPH
gust
KPH
rain 1hr
cm
rain 24hr
cm
rain mn
cm
humidity
%
barometer
mb
20260503002430 25 41 4.8 6.4 0.00 0.00 0.00 22 1010.8
20260503001926 25 133 1.6 1.6 0.00 0.00 0.00 23 1010.5
20260503001423 25 78 1.6 3.2 0.00 0.00 0.00 23 1010.7
20260503000921 26 70 3.2 3.2 0.00 0.00 0.00 21 1011.0
20260503000417 26 182 1.6 3.2 0.00 0.00 0.00 22 1010.7
20260502235914 26 165 0.0 1.6 0.00 0.00 0.00 24 1010.5
20260502235411 26 299 6.4 9.7 0.00 0.00 0.00 22 1010.8
20260502234909 26 114 1.6 1.6 0.00 0.00 0.00 23 1010.7
20260502234405 26 142 0.0 0.0 0.00 0.00 0.00 22 1010.7
20260502233902 27 152 0.0 0.0 0.00 0.00 0.00 22 1010.9
20260502233358 26 149 1.6 3.2 0.00 0.00 0.00 21 1010.8
20260502232855 26 116 0.0 1.6 0.00 0.00 0.00 22 1010.8
20260502232351 26 152 0.0 0.0 0.00 0.00 0.00 21 1011.0
20260502231848 26 161 3.2 3.2 0.00 0.00 0.00 23 1010.8
20260502231346 26 157 1.6 3.2 0.00 0.00 0.00 23 1011.2
20260502230844 26 141 0.0 1.6 0.00 0.00 0.00 24 1011.2
20260502230342 26 117 1.6 3.2 0.00 0.00 0.00 23 1011.2
20260502225838 26 93 4.8 4.8 0.00 0.00 0.00 23 1011.1
20260502225335 26 76 1.6 1.6 0.00 0.00 0.00 23 1011.2
20260502224832 26 140 0.0 0.0 0.00 0.00 0.00 23 1011.3
20260502224328 26 138 3.2 3.2 0.00 0.00 0.00 22 1011.2
20260502223825 26 131 0.0 1.6 0.00 0.00 0.00 25 1011.4
20260502223323 26 160 1.6 3.2 0.00 0.00 0.00 27 1011.7
20260502222821 26 106 3.2 3.2 0.00 0.00 0.00 26 1011.8
20260502222318 26 153 0.0 1.6 0.00 0.00 0.00 27 1011.4
20260502221814 25 115 0.0 1.6 0.00 0.00 0.00 27 1011.4
20260502221310 25 144 1.6 3.2 0.00 0.00 0.00 28 1011.9
20260502220808 25 144 3.2 4.8 0.00 0.00 0.00 27 1011.9
20260502220303 25 145 0.0 0.0 0.00 0.00 0.00 26 1011.9
20260502215800 25 141 3.2 3.2 0.00 0.00 0.00 26 1012.0
20260502215257 25 116 1.6 3.2 0.00 0.00 0.00 25 1011.8
20260502214754 26 161 1.6 1.6 0.00 0.00 0.00 29 1012.0
20260502214250 26 129 1.6 1.6 0.00 0.00 0.00 27 1011.9
20260502213748 25 114 1.6 3.2 0.00 0.00 0.00 26 1011.9
20260502213245 25 183 3.2 3.2 0.00 0.00 0.00 25 1012.0
20260502212744 25 145 0.0 0.0 0.00 0.00 0.00 28 1012.0
20260502212242 25 141 3.2 4.8 0.00 0.00 0.00 27 1012.2
20260502211737 25 144 0.0 0.0 0.00 0.00 0.00 28 1012.4
20260502211235 24 160 1.6 1.6 0.00 0.00 0.00 26 1012.1
20260502210732 25 85 3.2 3.2 0.00 0.00 0.00 27 1012.4
20260502210229 25 139 3.2 3.2 0.00 0.00 0.00 27 1012.4
20260502205726 24 157 6.4 6.4 0.00 0.00 0.00 30 1012.4
20260502205222 23 129 0.0 0.0 0.00 0.00 0.00 29 1012.6
20260502204719 24 138 4.8 4.8 0.00 0.00 0.00 29 1012.5
20260502204217 23 170 6.4 6.4 0.00 0.00 0.00 29 1012.7
20260502203715 23 158 6.4 6.4 0.00 0.00 0.00 29 1012.6
20260502203212 23 174 6.4 6.4 0.00 0.00 0.00 30 1012.9
20260502202706 23 186 8.0 11.3 0.00 0.00 0.00 30 1012.7
20260502202205 23 145 1.6 1.6 0.00 0.00 0.00 28 1013.0
20260502201702 23 153 6.4 9.7 0.00 0.00 0.00 29 1012.7
20260502201158 23 174 4.8 4.8 0.00 0.00 0.00 28 1013.0
20260502200654 23 221 3.2 3.2 0.00 0.00 0.00 29 1013.0
20260502200150 22 163 0.0 1.6 0.00 0.00 0.00 34 1012.7
20260502195648 22 218 3.2 4.8 0.00 0.00 0.00 31 1013.1
20260502195139 22 165 6.4 9.7 0.00 0.00 0.00 30 1013.2
20260502194636 22 158 4.8 4.8 0.00 0.00 0.00 34 1013.0
20260502194133 22 147 1.6 3.2 0.00 0.00 0.00 33 1013.1
20260502193629 22 177 3.2 3.2 0.00 0.00 0.00 34 1013.2
20260502193126 22 169 1.6 1.6 0.00 0.00 0.00 33 1013.1
20260502192622 22 190 4.8 4.8 0.00 0.00 0.00 34 1013.1
20260502192120 22 218 3.2 3.2 0.00 0.00 0.00 36 1013.3
20260502191616 22 156 1.6 1.6 0.00 0.00 0.00 35 1013.3
20260502191114 22 136 1.6 1.6 0.00 0.00 0.00 35 1013.4
20260502190611 22 132 1.6 1.6 0.00 0.00 0.00 33 1013.5
20260502190109 22 169 6.4 9.7 0.00 0.00 0.00 33 1013.4
20260502185603 22 146 1.6 1.6 0.00 0.00 0.00 32 1013.5
20260502185100 23 83 1.6 4.8 0.00 0.00 0.00 33 1013.7
20260502184556 22 132 0.0 0.0 0.00 0.00 0.00 31 1013.5
20260502184051 22 122 0.0 1.6 0.00 0.00 0.00 30 1013.4
20260502183548 22 130 0.0 0.0 0.00 0.00 0.00 35 1013.8
20260502183044 22 108 1.6 3.2 0.00 0.00 0.00 35 1013.7
20260502182540 22 134 0.0 0.0 0.00 0.00 0.00 36 1013.7
20260502182036 21 189 3.2 3.2 0.00 0.00 0.00 33 1013.8
20260502181534 21 35 3.2 4.8 0.00 0.00 0.00 33 1013.8
20260502181032 20 336 3.2 4.8 0.00 0.00 0.00 38 1014.0
20260502180528 21 71 3.2 4.8 0.00 0.00 0.00 39 1014.0
20260502170442 16 122 1.6 1.6 0.00 0.00 0.00 50 1014.0
20260502163925 16 110 3.2 4.8 0.00 0.00 0.00 54 1014.2
20260502163421 16 136 0.0 0.0 0.00 0.00 0.00 54 1014.2
20260502162920 15 109 0.0 1.6 0.00 0.00 0.00 56 1014.4
20260502162416 15 130 0.0 1.6 0.00 0.00 0.00 54 1014.3
20260502161913 14 118 0.0 1.6 0.00 0.00 0.00 58 1014.3
20260502161409 13 138 0.0 0.0 0.00 0.00 0.00 60 1014.5
20260502160907 13 94 1.6 1.6 0.00 0.00 0.00 59 1014.5
20260502160405 13 106 1.6 1.6 0.00 0.00 0.00 61 1014.5
20260502151844 11 108 0.0 0.0 0.00 0.00 0.00 72 1014.6
20260502151340 10 125 0.0 0.0 0.00 0.00 0.00 75 1014.5
20260502150838 10 142 0.0 0.0 0.00 0.00 0.00 75 1014.9
20260502150334 10 118 0.0 0.0 0.00 0.00 0.00 76 1014.6
20260502130722 3 119 0.0 0.0 0.00 0.00 0.00 93 1014.6
20260502130220 2 118 0.0 0.0 0.00 0.00 0.00 94 1014.7
20260502123706 3 136 0.0 0.0 0.00 0.00 0.00 93 1014.5
20260502123202 3 127 0.0 0.0 0.00 0.00 0.00 93 1014.2
20260502122659 3 134 0.0 0.0 0.00 0.00 0.00 93 1014.4
20260502122155 3 126 0.0 0.0 0.00 0.00 0.00 93 1014.6
20260502121654 3 145 0.0 0.0 0.00 0.00 0.00 93 1014.3
20260502121151 3 146 0.0 0.0 0.00 0.00 0.00 93 1014.4
20260502120647 3 148 0.0 0.0 0.00 0.00 0.00 93 1014.4
20260502120144 3 162 0.0 0.0 0.00 0.00 0.00 93 1014.4
20260502115642 3 127 0.0 0.0 0.00 0.00 0.00 93 1014.3
20260502115138 3 125 0.0 0.0 0.00 0.00 0.00 93 1014.4
20260502114634 3 127 0.0 0.0 0.00 0.00 0.00 93 1014.4
20260502114132 3 143 0.0 0.0 0.00 0.00 0.00 92 1014.3
20260502113629 4 145 0.0 0.0 0.00 0.00 0.00 92 1014.5
20260502113127 4 174 0.0 0.0 0.00 0.00 0.00 92 1014.4
20260502112625 4 121 0.0 0.0 0.00 0.00 0.00 92 1014.3
20260502112122 4 112 0.0 1.6 0.00 0.00 0.00 91 1014.4
20260502111619 4 153 0.0 0.0 0.00 0.00 0.00 91 1014.5
20260502111116 4 131 0.0 0.0 0.00 0.00 0.00 92 1014.6
20260502110614 4 146 0.0 0.0 0.00 0.00 0.00 91 1014.4
20260502110111 5 147 0.0 0.0 0.00 0.00 0.00 91 1014.4
20260502105609 5 150 0.0 0.0 0.00 0.00 0.00 91 1014.3
20260502105106 5 131 0.0 0.0 0.00 0.00 0.00 90 1014.4
20260502104603 5 125 0.0 0.0 0.00 0.00 0.00 90 1014.5
20260502104100 5 124 0.0 0.0 0.00 0.00 0.00 90 1014.3
20260502103558 5 123 0.0 0.0 0.00 0.00 0.00 90 1014.4
20260502103056 5 125 0.0 0.0 0.00 0.00 0.00 90 1014.3
20260502102551 5 124 0.0 0.0 0.00 0.00 0.00 90 1014.3
20260502102049 5 138 0.0 0.0 0.00 0.00 0.00 89 1014.5
20260502101547 6 173 1.6 1.6 0.00 0.00 0.00 90 1014.3
20260502101045 6 128 0.0 0.0 0.00 0.00 0.00 90 1014.4
20260502100543 6 151 0.0 0.0 0.00 0.00 0.00 90 1014.5
20260502091518 6 115 0.0 0.0 0.00 0.00 0.00 86 1014.4
20260502091015 6 114 0.0 0.0 0.00 0.00 0.00 86 1014.4
20260502090512 6 116 0.0 0.0 0.00 0.00 0.00 86 1014.5
20260502071406 8 146 0.0 0.0 0.00 0.00 0.00 80 1014.6
20260502070905 8 134 0.0 0.0 0.00 0.00 0.00 79 1014.4
20260502070402 8 122 0.0 0.0 0.00 0.00 0.00 79 1014.4
20260502065901 8 127 0.0 0.0 0.00 0.00 0.00 78 1014.5
20260502065359 8 131 0.0 0.0 0.00 0.00 0.00 77 1014.5
20260502064856 9 131 0.0 0.0 0.00 0.00 0.00 76 1014.3
20260502064354 9 130 0.0 0.0 0.00 0.00 0.00 74 1014.3
20260502063851 10 159 0.0 0.0 0.00 0.00 0.00 73 1014.2
20260502063349 9 160 0.0 0.0 0.00 0.00 0.00 74 1014.3
20260502062846 10 155 0.0 0.0 0.00 0.00 0.00 74 1014.0
20260502062343 10 175 1.6 1.6 0.00 0.00 0.00 74 1014.3
20260502061842 10 119 0.0 0.0 0.00 0.00 0.00 74 1014.0
20260502061339 10 128 0.0 1.6 0.00 0.00 0.00 74 1014.0
20260502060835 10 95 0.0 0.0 0.00 0.00 0.00 74 1013.9
20260502060330 10 119 0.0 0.0 0.00 0.00 0.00 73 1014.0
20260502055828 10 127 0.0 0.0 0.00 0.00 0.00 71 1014.0
20260502055326 10 115 0.0 0.0 0.00 0.00 0.00 69 1014.0
20260502054825 11 145 0.0 0.0 0.00 0.00 0.00 67 1013.9
20260502054322 11 147 0.0 0.0 0.00 0.00 0.00 67 1014.2
20260502053820 11 163 0.0 0.0 0.00 0.00 0.00 68 1014.2
20260502053316 11 145 0.0 0.0 0.00 0.00 0.00 67 1014.3
20260502052814 11 146 0.0 0.0 0.00 0.00 0.00 68 1014.0
20260502052312 11 146 0.0 0.0 0.00 0.00 0.00 67 1014.3
20260502051810 11 123 0.0 0.0 0.00 0.00 0.00 67 1014.3
20260502051309 11 153 0.0 0.0 0.00 0.00 0.00 65 1013.9
20260502050804 12 103 0.0 0.0 0.00 0.00 0.00 61 1013.9
20260502050301 12 133 0.0 0.0 0.00 0.00 0.00 60 1014.0
20260502045758 12 103 0.0 1.6 0.00 0.00 0.00 60 1013.9
20260502045254 13 82 0.0 0.0 0.00 0.00 0.00 55 1013.7
20260502044752 13 136 0.0 0.0 0.00 0.00 0.00 55 1013.8
20260502044248 13 113 0.0 0.0 0.00 0.00 0.00 54 1014.0
20260502043745 14 142 0.0 0.0 0.00 0.00 0.00 51 1013.9
20260502043242 15 166 0.0 0.0 0.00 0.00 0.00 50 1013.9
20260502042742 15 85 3.2 3.2 0.00 0.00 0.00 46 1013.9
20260502042239 15 101 0.0 0.0 0.00 0.00 0.00 49 1013.7
20260502041737 15 104 0.0 0.0 0.00 0.00 0.00 50 1013.7
20260502041234 16 82 1.6 1.6 0.00 0.00 0.00 47 1013.7
20260502040731 16 146 0.0 0.0 0.00 0.00 0.00 42 1013.6
20260502040228 16 143 0.0 0.0 0.00 0.00 0.00 43 1013.6
20260502035724 16 121 0.0 0.0 0.00 0.00 0.00 43 1013.4
20260502035221 16 140 0.0 0.0 0.00 0.00 0.00 41 1013.3
20260502034718 16 156 0.0 1.6 0.00 0.00 0.00 42 1013.5
20260502034216 16 135 0.0 0.0 0.00 0.00 0.00 41 1013.3
20260502033714 16 141 0.0 0.0 0.00 0.00 0.00 42 1013.2
20260502033212 17 125 0.0 0.0 0.00 0.00 0.00 43 1013.3
20260502032708 17 116 0.0 0.0 0.00 0.00 0.00 40 1013.2
20260502032204 17 146 0.0 0.0 0.00 0.00 0.00 39 1012.9
20260502031702 17 195 3.2 3.2 0.00 0.00 0.00 39 1013.1
20260502031200 18 164 1.6 1.6 0.00 0.00 0.00 40 1013.1
20260502030658 18 251 4.8 4.8 0.00 0.00 0.00 39 1012.9
20260502030156 18 204 6.4 6.4 0.00 0.00 0.00 39 1013.0
20260502025653 18 177 1.6 1.6 0.00 0.00 0.00 40 1012.6
20260502025150 18 170 4.8 4.8 0.00 0.00 0.00 37 1012.7
20260502024648 18 144 1.6 1.6 0.00 0.00 0.00 37 1013.1
20260502024146 18 144 0.0 0.0 0.00 0.00 0.00 38 1013.0
20260502023644 19 129 0.0 0.0 0.00 0.00 0.00 36 1012.9
20260502023141 19 134 0.0 0.0 0.00 0.00 0.00 37 1012.7
20260502022638 19 163 0.0 0.0 0.00 0.00 0.00 36 1012.5
20260502022135 20 131 0.0 0.0 0.00 0.00 0.00 36 1012.4
20260502021632 20 141 0.0 0.0 0.00 0.00 0.00 36 1012.5
20260502021129 20 144 0.0 0.0 0.00 0.00 0.00 36 1012.6
20260502020627 20 171 3.2 3.2 0.00 0.00 0.00 35 1012.6
20260502020123 20 159 3.2 3.2 0.00 0.00 0.00 34 1012.5
20260502015621 21 149 0.0 0.0 0.00 0.00 0.00 34 1012.6
20260502015117 21 146 1.6 1.6 0.00 0.00 0.00 33 1012.6
20260502014615 21 170 3.2 4.8 0.00 0.00 0.00 33 1012.9
20260502014112 21 147 1.6 3.2 0.00 0.00 0.00 32 1012.6
20260502013608 21 173 6.4 9.7 0.00 0.00 0.00 33 1012.6
20260502013103 21 170 6.4 9.7 0.00 0.00 0.00 32 1012.6
20260502012601 21 193 6.4 9.7 0.00 0.00 0.00 31 1012.6
20260502012059 22 164 6.4 9.7 0.00 0.00 0.00 32 1012.6
20260502011555 22 163 4.8 6.4 0.00 0.00 0.00 31 1012.9
20260502011052 22 167 11.3 12.9 0.00 0.00 0.00 30 1012.7
20260502010549 22 152 1.6 1.6 0.00 0.00 0.00 32 1012.7
20260502010045 22 170 3.2 3.2 0.00 0.00 0.00 31 1012.7
20260502005543 22 137 8.0 14.5 0.00 0.00 0.00 31 1012.9
20260502005040 22 172 6.4 9.7 0.00 0.00 0.00 30 1012.9
20260502004536 23 185 3.2 4.8 0.00 0.00 0.00 31 1012.7
20260502004033 23 161 6.4 9.7 0.00 0.00 0.00 30 1012.7
20260502003531 23 145 1.6 3.2 0.00 0.00 0.00 31 1012.9
20260502003027 23 139 3.2 4.8 0.00 0.00 0.00 29 1013.1